#timestamp,LO_Frequency,Hit,StdDev 
1546956015.3,286046998.1,N
1546956035.1,286047000.8,N
1546956055.9,286046999.9,N
1546956075.7,286047002.6,N
1546956095.6,286047000.0,N
1546956115.4,286047000.6,N
1546956135.2,286047000.5,N
1546956155.1,286047000.9,N
1546956156.0,286047000.9,N
1546956175.8,286047001.1,N
1546956195.7,286046998.6,N
1546956215.5,286047001.1,N
1546956235.3,286047001.0,N
1546956255.2,286047000.5,N
1546956275.0,286047000.9,N
1546956275.9,286047000.9,N
1546956295.7,286047000.1,N
1546956315.6,286046998.3,N
1546956335.4,286047000.7,N
1546956355.3,286046999.8,N
1546956375.1,286046998.1,N
1546956376.0,286046998.1,N
1546956395.8,286047002.5,N
1546956415.7,286047000.6,N
1546956435.5,286047000.2,N
1546956455.3,286046999.0,N
1546956475.2,286046999.4,N
1546956495.0,286046998.1,N
1546956495.9,286046998.1,N
1546956515.8,286047001.1,N
1546956535.6,286047000.7,N
1546956555.4,286047000.8,N
1546956575.3,286047000.3,N
1546956595.1,286047000.0,N
1546956615.9,286047002.3,N
1546956635.7,286046999.8,N
1546956655.5,286047002.1,N
1546956675.4,286047000.1,N
1546956695.2,286046999.9,N
1546956715.1,286047000.2,N
1546956716.0,286047000.2,N
1546956735.8,286047000.6,N
1546956755.6,286047003.8,Y
1546956775.5,286047007.3,P
1546956795.3,286047004.9,N
1546956815.2,286047003.7,N
1546956835.9,286047003.8,N
1546956855.7,286047003.4,N
1546956875.6,286047005.5,N
1546956895.4,286047005.1,N
1546956915.2,286047003.1,N
1546956935.1,286047004.4,N
1546956936.0,286047004.4,N
1546956955.8,286047003.7,N
1546956975.7,286047005.9,Y
1546956995.5,286046998.1,P
1546957015.3,286047000.7,N
1546957035.2,286046999.0,N
1546957055.0,286046998.8,N
1546957055.9,286046998.8,N
1546957075.8,286046998.7,N
1546957095.6,286046997.5,N
1546957115.4,286046996.2,N
1546957135.3,286046995.0,N
1546957155.1,286046997.0,N
1546957175.8,286046996.7,N
1546957195.7,286046996.6,N
1546957215.5,286046996.8,N
1546957235.4,286046999.2,N
1546957255.2,286046997.9,N
1546957275.0,286046997.8,N
1546957275.9,286046997.8,N
1546957295.8,286046997.8,N
1546957315.6,286046997.3,N
1546957335.4,286046996.5,N
1546957355.3,286046996.5,N
1546957375.1,286046999.4,N
1546957395.9,286046998.7,N
1546957415.7,286046996.6,N
1546957435.5,286046997.4,N
1546957455.4,286046998.7,N
1546957475.2,286046999.8,N
1546957495.0,286047001.1,N
1546957495.9,286047001.1,N
1546957515.8,286046998.6,N
1546957535.6,286046996.9,N
1546957555.5,286046997.0,N
1546957575.3,286046996.6,N
1546957595.1,286046996.5,N
1546957615.9,286046999.2,N
1546957635.7,286046998.5,N
1546957655.6,286046999.9,N
1546957675.4,286046999.7,N
1546957695.2,286046999.0,N
1546957715.1,286046997.3,N
1546957716.0,286046997.3,N
1546957735.8,286046997.0,N
1546957755.6,286047002.6,N
1546957775.5,286047001.5,N
1546957795.3,286047002.8,N
1546957815.2,286046999.7,N
1546957835.9,286046999.9,N
1546957855.7,286047002.5,N
1546957875.6,286047002.4,N
1546957895.4,286047002.8,N
1546957915.2,286047000.3,N
1546957935.1,286047000.7,N
1546957936.0,286047000.7,N
1546957955.8,286047000.1,N
1546957975.7,286046999.9,N
1546957995.5,286046998.2,N
1546958015.3,286046996.6,N
1546958035.2,286046997.7,N
1546958055.0,286046999.1,N
1546958055.9,286046999.1,N
1546958075.7,286047001.1,N
1546958095.6,286047001.0,N
1546958115.4,286047001.6,N
1546958135.3,286047002.5,N
1546958155.1,286047001.2,N
1546958156.0,286047001.2,N
1546958175.8,286047000.3,N
1546958195.7,286046998.7,N
1546958215.5,286046998.1,N
1546958235.3,286046997.1,N
1546958255.2,286046997.6,N
1546958275.0,286046997.9,N
1546958275.9,286046997.9,N
1546958295.8,286046997.8,N
1546958315.6,286046995.0,N
1546958335.4,286046997.8,N
1546958355.3,286046997.8,N
1546958375.1,286046996.5,N
1546958395.9,286046994.9,N
1546958415.7,286046997.7,N
1546958435.5,286046999.1,N
1546958455.4,286046996.8,N
1546958475.2,286046997.5,N
1546958495.0,286046996.7,N
1546958495.9,286046996.7,N
1546958515.8,286046996.7,N
1546958535.6,286046994.9,N
1546958555.5,286046997.2,N
1546958575.3,286046997.9,N
1546958595.1,286046997.9,N
1546958615.9,286046996.8,N
1546958635.7,286046997.2,N
1546958655.5,286046997.2,N
1546958675.4,286047001.0,N
1546958695.2,286047001.1,N
1546958715.1,286047000.9,N
1546958716.0,286047000.9,N
1546958735.8,286046999.0,N
1546958755.6,286046998.1,N
1546958775.5,286046999.6,N
1546958795.3,286046996.9,N
1546958815.1,286046997.0,N
1546958835.9,286046999.2,N
1546958855.7,286046996.6,N
1546958875.6,286046995.0,N
1546958895.4,286046995.2,N
1546958915.2,286046995.8,N
1546958935.1,286046995.6,N
1546958936.0,286046995.6,N
1546958955.8,286046997.9,N
1546958975.6,286046997.4,N
1546958995.5,286046996.8,N
1546959015.3,286046997.8,N
1546959035.2,286046995.1,N
1546959055.9,286046997.6,N
1546959075.7,286046997.9,N
1546959095.6,286046995.7,N
1546959115.4,286046995.5,N
1546959135.2,286046998.0,N
1546959155.1,286046995.2,N
1546959156.0,286046995.2,N
1546959175.8,286046997.8,N
1546959195.7,286046994.9,N
1546959215.5,286046994.9,N
1546959235.3,286046997.3,N
1546959255.2,286046997.9,N
1546959275.0,286047000.8,N
1546959275.9,286047000.8,N
1546959295.8,286046999.6,N
1546959315.6,286046999.6,N
1546959335.4,286046999.3,N
1546959355.3,286046998.6,N
1546959375.1,286046999.0,N
1546959395.8,286046997.6,N
1546959415.7,286046999.5,N
1546959435.5,286046999.4,N
1546959455.3,286046999.0,N
1546959475.2,286046998.7,N
1546959495.0,286046997.6,N
1546959495.9,286046997.6,N
1546959515.8,286046997.6,N
1546959535.6,286046999.3,N
1546959555.4,286047000.1,N
1546959575.3,286047000.8,N
1546959595.1,286047000.2,N
